Content
SEND FEEDBACK

Daily
Averages
Monthly
Summary
Canada

STRATFORD, ONTARIO


Home > North America > Canada > Ontario
Elevation: 1161 feet     Latitude: 43 24N     Longitude: 081 00W

WEATHER
 
SELECT A DAY
Number of Records: 190,837;   Date Range: 1/1/95 - 7/11/14
 
SHARE

PRINT THIS DATA

[ ← Previous Day ]
WEATHER ALMANAC - FEBRUARY 5, 2013
[ Next Day → ]
[ °C ]   °F
Weather ElementAverageHighLow
Temperature13.9 °F23 °F (10:00 pm)-0.4 °F (6:00 am)
Dewpoint9.3 °F21.2 °F (11:00 pm)-4 °F (6:00 am)
Humidity81.6 %93 % (7:11 pm)51 % (1:00 pm)
Barometer29.91 in29.98 in (10:00 am)29.87 in (3:00 pm)
Wind Speed6.7 mph15 mph (10:00 pm)
Wind Gust21.9 mph (11:00 pm)
Weather ElementAverage
Visibility11.8 mi
Wind DirectionSE (135.9 °)

Weather ElementTotal
Precipitation---
Heating Degree Days53.7 (Base 65)
Averaged from 32 records on February 5, 2013
WEATHER CONDITIONS BREAKOUT
WIND DIRECTION BREAKOUT
WEATHER BY HOUR - FEBRUARY 5, 2013
[ °C ]   °F
Local TimeTemperatureDewpointHumidityBarometerVisibilityWind DirectionWind SpeedGust SpeedPrecipitationEventsConditions
1:00 AM2.0 °F-2.0 °F77 %29.96 in15.0 miNNE (30°)2.3 mph
1:00 AM1.4 °F-2.2 °F85 %29.96 in15.0 miCalmScattered Clouds
2:00 AM3.2 °F-0.4 °F85 %29.96 in15.0 miEast (90°)2.3 mphMostly Cloudy
3:00 AM5.0 °F1.4 °F85 %29.95 in15.0 miCalmOvercast
4:00 AM5.0 °F3.2 °F92 %29.95 in15.0 miCalmScattered Clouds
5:00 AM3.2 °F-0.4 °F85 %29.96 in15.0 miEast (90°)3.5 mphScattered Clouds
6:00 AM-0.4 °F-4.0 °F85 %29.95 in15.0 miENE (70°)2.3 mphPartly Cloudy
7:00 AM-0.4 °F-4.0 °F85 %29.96 in15.0 miENE (70°)2.3 mphPartly Cloudy
7:00 AM0.0 °F-4.0 °F77 %29.96 in15.0 miENE (70°)3.5 mph
8:00 AM-0.4 °F-4.0 °F85 %29.97 in15.0 miNE (50°)2.3 mphMostly Cloudy
9:00 AM3.2 °F-0.4 °F85 %29.97 in15.0 miCalmMostly Cloudy
10:00 AM8.6 °F5.0 °F85 %29.98 in15.0 miCalmMostly Cloudy
11:00 AM14.0 °F8.6 °F79 %29.96 in15.0 miEast (90°)2.3 mphOvercast
12:00 PM19.4 °F8.6 °F63 %29.93 in15.0 miSouth (170°)5.8 mphOvercast
1:00 PM20.0 °F10.0 °F51 %29.88 in15.0 miSSE (160°)9.2 mphOvercast
1:00 PM19.4 °F8.6 °F63 %29.88 in15.0 miSouth (170°)10.4 mphOvercast
2:00 PM21.2 °F10.4 °F63 %29.88 in15.0 miSSW (200°)8.1 mphMostly Cloudy
3:00 PM21.2 °F12.2 °F68 %29.87 in15.0 miSW (230°)13.8 mphMostly Cloudy
4:00 PM21.2 °F14.0 °F74 %29.87 in15.0 miSSW (210°)10.4 mphOvercast
5:00 PM21.2 °F15.8 °F80 %29.87 in15.0 miSSW (200°)11.5 mphOvercast
6:00 PM21.2 °F15.8 °F80 %29.87 in15.0 miSouth (190°)6.9 mphOvercast
6:13 PM21.2 °F17.6 °F86 %29.87 in15.0 miSouth (190°)8.1 mphSnowLight Snow
6:53 PM21.2 °F17.6 °F86 %29.87 in2.0 miSouth (190°)9.2 mphSnowSnow
6:56 PM21.2 °F17.6 °F86 %29.87 in2.0 miSouth (190°)10.4 mphSnowLight Snow
7:00 PM21.2 °F17.6 °F86 %29.87 in1.5 miSSW (200°)9.2 mphSnowLight Snow
7:00 PM21.0 °F18.0 °F85 %29.87 in1.0 miSouth (190°)9.2 mph
7:11 PM21.2 °F19.4 °F93 %29.88 in1.0 miSSW (200°)10.4 mphSnowLight Snow
7:48 PM21.2 °F19.4 °F93 %29.88 in2.0 miSSW (200°)9.2 mphSnowLight Snow
8:00 PM21.2 °F19.4 °F93 %29.89 in5.0 miSSW (210°)11.5 mphSnowLight Snow
9:00 PM21.2 °F19.4 °F93 %29.89 in8.0 miSW (220°)12.7 mphSnowLight Snow
10:00 PM23.0 °F19.4 °F86 %29.90 in12.0 miSW (220°)15.0 mphSnowLight Snow
11:00 PM23.0 °F21.2 °F93 %29.90 in12.0 miWSW (250°)12.7 mph21.9 mphSnowLight Snow
Hourly data recorded from CYXU, located miles away from Stratford, Ontario







STORIES FROM OUR PARTNERS